Simultaneous Nadir Overpasses (SNOs) Predictions

Prediction of SNOs between GOES-16 and AQUA Satellite Orbit:

Table of predicted SNOs for the next 14.0 days since TLE Epoch: 12/2/2023
Index Date Time (GOES-16) GOES-16 Lat,Lon AQUA Lat,Lon Distance(km) Time Diff (sec)
1 12/03/2023 07:02:19 -0.00, -75.21 0.12, -75.77 63.13 80
2 12/05/2023 06:44:30 0.00, -75.23 -0.66, -72.07 359.47 80
3 12/05/2023 19:05:08 0.00, -75.24 -0.41, -77.06 207.85 80
4 12/07/2023 18:52:38 0.00, -75.26 0.43, -73.36 216.55 80
5 12/08/2023 07:13:07 -0.00, -75.27 0.63, -78.32 346.75 80
6 12/10/2023 06:55:14 0.00, -75.30 -0.13, -74.60 78.76 80
7 12/10/2023 19:15:50 -0.00, -75.30 -0.93, -79.59 488.30 80
8 12/12/2023 19:00:36 -0.01, -75.33 -0.12, -75.87 61.84 80
9 12/14/2023 18:48:01 -0.00, -75.36 0.65, -72.14 365.21 80
10 12/15/2023 07:08:28 0.00, -75.37 0.39, -77.10 197.15 80
